When you browse on this site, cookies collect data to enhance your experience and personalize the content and advertising you see.
Visit our Privacy Policy to learn more. By continuing to use the site, you agree to this use of cookies and data.

Hourly Weather Lebu

Today, 7 August, Friday

Time Temperature Precipitation Wind Pressure Humidity
00:00 +2°C° 0 mm 6 mps 753 mmHg 82%
01:00 +2°C° 0 mm 6 mps 753 mmHg 81%
02:00 +1°C° 0 mm 6 mps 752 mmHg 82%
03:00 +1°C° 0 mm 6 mps 752 mmHg 82%
04:00 +1°C° 0 mm 6 mps 752 mmHg 82%
05:00 +1°C° 0 mm 6 mps 752 mmHg 83%
06:00 +1°C° 0 mm 6 mps 752 mmHg 83%
07:00 +1°C° 0 mm 5 mps 752 mmHg 83%
08:00 +3°C° 0 mm 6 mps 752 mmHg 77%
09:00 +5°C° 0 mm 6 mps 752 mmHg 72%
10:00 +8°C° 0 mm 6 mps 752 mmHg 66%
11:00 +9°C° 0 mm 6 mps 752 mmHg 65%
12:00 +10°C° 0 mm 6 mps 751 mmHg 65%
13:00 +11°C° 0 mm 6 mps 751 mmHg 65%
14:00 +10°C° 0 mm 6 mps 751 mmHg 69%
15:00 +10°C° 0 mm 6 mps 750 mmHg 73%
16:00 +9°C° 0 mm 5 mps 750 mmHg 77%
17:00 +8°C° 0 mm 5 mps 750 mmHg 81%
18:00 +7°C° 0 mm 5 mps 751 mmHg 86%
19:00 +6°C° 0 mm 4 mps 751 mmHg 91%
20:00 +6°C° 0 mm 4 mps 751 mmHg 91%
21:00 +5°C° 0 mm 3 mps 751 mmHg 90%
22:00 +5°C° 0 mm 3 mps 751 mmHg 90%
23:00 +6°C° 0 mm 2 mps 751 mmHg 89%

Tomorrow, 8 August, Saturday

Time Temperature Precipitation Wind Pressure Humidity
00:00 +6°C° 0 mm 2 mps 751 mmHg 88%
01:00 +6°C° 0 mm 2 mps 751 mmHg 87%
02:00 +6°C° 0 mm 1 mps 751 mmHg 88%
03:00 +6°C° 0 mm 1 mps 751 mmHg 89%
04:00 +6°C° 0 mm 1 mps 750 mmHg 89%
05:00 +6°C° 0 mm 1 mps 751 mmHg 88%
06:00 +6°C° 0 mm 1 mps 751 mmHg 86%
07:00 +6°C° 0 mm 1 mps 751 mmHg 85%
08:00 +7°C° 0 mm 2 mps 751 mmHg 79%
09:00 +10°C° 0 mm 2 mps 751 mmHg 73%
10:00 +13°C° 0 mm 2 mps 750 mmHg 67%
11:00 +13°C° 0 mm 2 mps 750 mmHg 68%
12:00 +13°C° 0 mm 3 mps 750 mmHg 68%
13:00 +13°C° 0 mm 3 mps 750 mmHg 69%
14:00 +12°C° 0 mm 3 mps 749 mmHg 73%
15:00 +12°C° 0 mm 3 mps 749 mmHg 78%
16:00 +11°C° 0 mm 4 mps 749 mmHg 82%
17:00 +10°C° 0 mm 4 mps 749 mmHg 86%
18:00 +10°C° 0 mm 4 mps 749 mmHg 90%
19:00 +8°C° 0 mm 4 mps 749 mmHg 94%
20:00 +8°C° 0 mm 4 mps 748 mmHg 93%
21:00 +8°C° 0 mm 5 mps 748 mmHg 93%
22:00 +8°C° 0 mm 6 mps 748 mmHg 92%
23:00 +8°C° 0.7 mm 6 mps 748 mmHg 94%

Day after tomorrow, 9 August, Sunday

Time Temperature Precipitation Wind Pressure Humidity
00:00 +8°C° 0.7 mm 7 mps 748 mmHg 95%
01:00 +8°C° 0.7 mm 7 mps 748 mmHg 97%
02:00 +9°C° 0.5 mm 6 mps 747 mmHg 97%
03:00 +9°C° 0.5 mm 5 mps 747 mmHg 98%
04:00 +10°C° 0.5 mm 4 mps 747 mmHg 98%
05:00 +10°C° 0.5 mm 4 mps 748 mmHg 98%
06:00 +10°C° 0.5 mm 4 mps 748 mmHg 98%
07:00 +10°C° 0.5 mm 4 mps 748 mmHg 98%
08:00 +10°C° 0.4 mm 4 mps 749 mmHg 98%
09:00 +9°C° 0.4 mm 5 mps 749 mmHg 97%
10:00 +10°C° 0.4 mm 6 mps 750 mmHg 96%
11:00 +9°C° 0.1 mm 6 mps 750 mmHg 95%
12:00 +9°C° 0.1 mm 6 mps 751 mmHg 93%
13:00 +8°C° 0.1 mm 6 mps 751 mmHg 92%
14:00 +8°C° 0 mm 6 mps 752 mmHg 90%
15:00 +7°C° 0 mm 6 mps 752 mmHg 87%
16:00 +7°C° 0 mm 6 mps 752 mmHg 85%
17:00 +6°C° 0 mm 5 mps 753 mmHg 86%
18:00 +5°C° 0 mm 5 mps 753 mmHg 87%
19:00 +4°C° 0 mm 4 mps 754 mmHg 88%
20:00 +4°C° 0 mm 4 mps 754 mmHg 87%
21:00 +4°C° 0 mm 4 mps 755 mmHg 87%
22:00 +4°C° 0 mm 4 mps 755 mmHg 86%
23:00 +4°C° 0 mm 3 mps 755 mmHg 86%

10 August, Monday

Time Temperature Precipitation Wind Pressure Humidity
00:00 +5°C° 0 mm 3 mps 755 mmHg 86%
01:00 +5°C° 0 mm 3 mps 755 mmHg 87%
02:00 +4°C° 0 mm 4 mps 755 mmHg 88%
03:00 +4°C° 0 mm 4 mps 755 mmHg 90%
04:00 +4°C° 0 mm 4 mps 755 mmHg 92%
05:00 +3°C° 0.1 mm 5 mps 755 mmHg 91%
06:00 +3°C° 0.1 mm 5 mps 756 mmHg 91%
07:00 +3°C° 0.1 mm 6 mps 756 mmHg 90%
08:00 +4°C° 0 mm 6 mps 757 mmHg 84%
09:00 +5°C° 0 mm 6 mps 757 mmHg 77%
10:00 +7°C° 0 mm 6 mps 757 mmHg 71%
11:00 +7°C° 0 mm 6 mps 757 mmHg 67%
12:00 +7°C° 0 mm 6 mps 757 mmHg 64%
13:00 +8°C° 0 mm 6 mps 757 mmHg 60%
14:00 +7°C° 0 mm 6 mps 756 mmHg 63%
15:00 +7°C° 0 mm 6 mps 756 mmHg 66%
16:00 +5°C° 0 mm 6 mps 756 mmHg 68%
17:00 +4°C° 0 mm 6 mps 756 mmHg 75%
18:00 +3°C° 0 mm 5 mps 756 mmHg 81%
19:00 +1°C° 0 mm 5 mps 756 mmHg 88%
20:00 +1°C° 0 mm 4 mps 756 mmHg 88%
21:00 0°C° 0 mm 4 mps 756 mmHg 88%
22:00 0°C° 0 mm 4 mps 756 mmHg 89%
23:00 +1°C° 0 mm 3 mps 756 mmHg 87%

11 August, Tuesday

Time Temperature Precipitation Wind Pressure Humidity
00:00 +1°C° 0 mm 3 mps 755 mmHg 86%
01:00 +1°C° 0 mm 3 mps 755 mmHg 84%
02:00 +1°C° 0 mm 3 mps 754 mmHg 86%
03:00 0°C° 0 mm 4 mps 754 mmHg 88%
04:00 0°C° 0 mm 4 mps 753 mmHg 90%
05:00 0°C° 0 mm 4 mps 753 mmHg 89%
06:00 0°C° 0 mm 4 mps 752 mmHg 88%
07:00 0°C° 0 mm 4 mps 752 mmHg 87%
08:00 +3°C° 0 mm 4 mps 752 mmHg 79%
09:00 +5°C° 0 mm 5 mps 752 mmHg 72%
10:00 +7°C° 0 mm 5 mps 751 mmHg 64%
11:00 +8°C° 0 mm 5 mps 751 mmHg 63%
12:00 +8°C° 0 mm 5 mps 750 mmHg 63%
13:00 +10°C° 0 mm 4 mps 750 mmHg 62%
14:00 +8°C° 0 mm 4 mps 749 mmHg 64%
15:00 +8°C° 0 mm 4 mps 749 mmHg 67%
16:00 +7°C° 0 mm 4 mps 749 mmHg 69%
17:00 +6°C° 0 mm 4 mps 749 mmHg 76%
18:00 +5°C° 0 mm 4 mps 749 mmHg 84%
19:00 +3°C° 0 mm 3 mps 749 mmHg 92%
20:00 +3°C° 0 mm 3 mps 748 mmHg 91%
21:00 +3°C° 0 mm 3 mps 748 mmHg 91%
22:00 +4°C° 0 mm 2 mps 748 mmHg 91%
23:00 +4°C° 0 mm 2 mps 748 mmHg 89%

12 August, Wednesday

Time Temperature Precipitation Wind Pressure Humidity
00:00 +4°C° 0 mm 2 mps 748 mmHg 88%
01:00 +5°C° 0 mm 2 mps 748 mmHg 87%
02:00 +5°C° 0.1 mm 2 mps 747 mmHg 87%
03:00 +5°C° 0.1 mm 2 mps 747 mmHg 88%
04:00 +4°C° 0.1 mm 3 mps 746 mmHg 88%
05:00 +4°C° 0.2 mm 3 mps 746 mmHg 89%
06:00 +4°C° 0.2 mm 4 mps 746 mmHg 90%
07:00 +4°C° 0.2 mm 4 mps 746 mmHg 91%
08:00 +5°C° 0.1 mm 4 mps 745 mmHg 87%
09:00 +6°C° 0.1 mm 4 mps 745 mmHg 83%
10:00 +8°C° 0.1 mm 5 mps 745 mmHg 79%
11:00 +7°C° 0.6 mm 5 mps 745 mmHg 81%
12:00 +7°C° 0.6 mm 6 mps 744 mmHg 84%
13:00 +6°C° 0.6 mm 7 mps 744 mmHg 86%
14:00 +5°C° 1.5 mm 6 mps 744 mmHg 89%
15:00 +6°C° 1.5 mm 4 mps 744 mmHg 92%
16:00 +5°C° 1.5 mm 3 mps 744 mmHg 95%
17:00 +5°C° 0.2 mm 4 mps 745 mmHg 95%
18:00 +4°C° 0.2 mm 4 mps 745 mmHg 94%
19:00 +3°C° 0.2 mm 5 mps 746 mmHg 94%
20:00 +2°C° 0 mm 5 mps 746 mmHg 94%
21:00 +1°C° 0 mm 4 mps 747 mmHg 93%
22:00 0°C° 0 mm 4 mps 747 mmHg 93%
23:00 0°C° 0.1 mm 4 mps 747 mmHg 93%
Show more